| time (UTC) | temp F | wind direction | speed knots | gust knots | rain 1hr in | rain 24hr in | rain mn in | humidity % | barometer mb |
| 20260906205509 | 82 | 314 | 0.0 | 0.0 | 0.00 | 0.00 | 0.00 | 73 | 1010.6 |
| 20260906205103 | 82 | 314 | 0.0 | 0.0 | 0.00 | 0.00 | 0.00 | 75 | 1010.5 |
| 20260906204503 | 83 | 311 | 0.0 | 0.9 | 0.00 | 0.00 | 0.00 | 74 | 1010.3 |
| 20260906204009 | 83 | 315 | 0.0 | 0.9 | 0.00 | 0.00 | 0.00 | 73 | 1010.3 |
| 20260906203603 | 83 | 10 | 0.0 | 0.0 | 0.00 | 0.00 | 0.00 | 74 | 1010.2 |
| 20260906203004 | 83 | 10 | 0.0 | 0.9 | 0.00 | 0.00 | 0.00 | 70 | 1010.1 |
| 20260906202509 | 83 | 184 | 0.0 | 0.9 | 0.00 | 0.00 | 0.00 | 72 | 1010.2 |
| 20260906202103 | 83 | 184 | 0.0 | 0.0 | 0.00 | 0.00 | 0.00 | 75 | 1010.2 |
| 20260906201503 | 83 | 184 | 0.0 | 0.0 | 0.00 | 0.00 | 0.00 | 74 | 1010.2 |
| 20260906201010 | 83 | 184 | 0.0 | 0.0 | 0.00 | 0.00 | 0.00 | 73 | 1010.3 |
| 20260906200606 | 83 | 184 | 0.0 | 0.0 | 0.00 | 0.00 | 0.00 | 73 | 1010.4 |
| 20260906200005 | 83 | 186 | 0.0 | 0.0 | 0.00 | 0.00 | 0.00 | 72 | 1010.4 |
| 20260906195510 | 83 | 186 | 0.0 | 0.0 | 0.00 | 0.18 | 0.00 | 73 | 1010.5 |
| 20260906195104 | 83 | 144 | 0.0 | 0.0 | 0.00 | 0.18 | 0.00 | 75 | 1010.5 |
| 20260906194503 | 83 | 144 | 0.0 | 0.9 | 0.00 | 0.18 | 0.00 | 73 | 1010.7 |
| 20260906194013 | 83 | 147 | 0.0 | 0.0 | 0.00 | 0.18 | 0.00 | 73 | 1010.8 |
| 20260906193603 | 83 | 148 | 0.0 | 0.0 | 0.00 | 0.18 | 0.00 | 73 | 1010.8 |
| 20260906193003 | 83 | 147 | 0.0 | 0.0 | 0.00 | 0.18 | 0.00 | 76 | 1010.9 |
| 20260906192509 | 83 | 248 | 0.0 | 0.9 | 0.00 | 0.18 | 0.00 | 75 | 1011.0 |
| 20260906192103 | 83 | 56 | 0.0 | 0.9 | 0.00 | 0.18 | 0.00 | 76 | 1011.0 |
| 20260906191503 | 83 | 338 | 0.0 | 0.9 | 0.00 | 0.18 | 0.00 | 73 | 1011.0 |
| 20260906191010 | 83 | 336 | 0.0 | 0.9 | 0.00 | 0.18 | 0.00 | 70 | 1011.1 |
| 20260906190606 | 83 | 112 | 0.0 | 0.0 | 0.00 | 0.18 | 0.00 | 75 | 1011.1 |
| 20260906190003 | 82 | 48 | 0.0 | 0.0 | 0.00 | 0.18 | 0.00 | 75 | 1011.1 |
| 20260906185509 | 82 | 355 | 0.0 | 0.0 | 0.00 | 0.18 | 0.00 | 78 | 1011.1 |
| 20260906185104 | 81 | 119 | 0.0 | 0.0 | 0.00 | 0.18 | 0.00 | 78 | 1011.2 |
| 20260906184503 | 81 | 228 | 0.0 | 0.0 | 0.00 | 0.18 | 0.00 | 78 | 1011.5 |
| 20260906184010 | 81 | 333 | 0.0 | 0.9 | 0.00 | 0.18 | 0.00 | 77 | 1011.5 |
| 20260906183006 | 81 | 185 | 0.0 | 0.0 | 0.00 | 0.18 | 0.00 | 82 | 1011.5 |
| 20260906182509 | 81 | 186 | 0.0 | 0.0 | 0.00 | 0.18 | 0.00 | 81 | 1011.5 |
| 20260906182103 | 80 | 226 | 0.0 | 0.0 | 0.00 | 0.18 | 0.00 | 82 | 1011.5 |
| 20260906181504 | 79 | 80 | 0.0 | 0.9 | 0.00 | 0.18 | 0.00 | 90 | 1011.7 |
| 20260906181010 | 78 | 303 | 0.0 | 0.9 | 0.00 | 0.18 | 0.00 | 89 | 1011.7 |
| 20260906180603 | 77 | 269 | 0.0 | 0.0 | 0.00 | 0.18 | 0.00 | 92 | 1011.7 |
| 20260906180003 | 76 | 269 | 0.0 | 0.0 | 0.00 | 0.18 | 0.00 | 93 | 1011.7 |
| 20260906175510 | 75 | 269 | 0.0 | 0.0 | 0.00 | 0.18 | 0.00 | 93 | 1011.7 |
| 20260906175104 | 75 | 269 | 0.0 | 0.0 | 0.00 | 0.18 | 0.00 | 94 | 1011.8 |
| 20260906174504 | 75 | 269 | 0.0 | 0.0 | 0.00 | 0.18 | 0.00 | 94 | 1011.9 |
| 20260906174010 | 75 | 269 | 0.0 | 0.0 | 0.00 | 0.18 | 0.00 | 94 | 1011.9 |
| 20260906173606 | 75 | 269 | 0.0 | 0.0 | 0.00 | 0.18 | 0.00 | 93 | 1011.8 |
| 20260906173003 | 75 | 269 | 0.0 | 0.0 | 0.00 | 0.18 | 0.00 | 93 | 1011.9 |
| 20260906172509 | 75 | 269 | 0.0 | 0.0 | 0.00 | 0.18 | 0.00 | 92 | 1012.1 |
| 20260906172106 | 75 | 269 | 0.0 | 0.0 | 0.00 | 0.18 | 0.00 | 92 | 1012.0 |
| 20260906171506 | 75 | 269 | 0.0 | 0.0 | 0.00 | 0.18 | 0.00 | 92 | 1012.0 |
| 20260906171010 | 75 | 269 | 0.0 | 0.0 | 0.00 | 0.18 | 0.00 | 91 | 1012.0 |
| 20260906170604 | 75 | 269 | 0.0 | 0.0 | 0.00 | 0.18 | 0.00 | 91 | 1012.0 |
| 20260906170004 | 75 | 269 | 0.0 | 0.0 | 0.00 | 0.18 | 0.00 | 91 | 1012.1 |
| 20260906165512 | 75 | 269 | 0.0 | 0.0 | 0.00 | 0.18 | 0.00 | 91 | 1012.2 |
| 20260906165103 | 75 | 269 | 0.0 | 0.0 | 0.00 | 0.18 | 0.00 | 91 | 1012.2 |
| 20260906164503 | 75 | 269 | 0.0 | 0.0 | 0.00 | 0.18 | 0.00 | 90 | 1012.2 |
| 20260906164009 | 75 | 269 | 0.0 | 0.0 | 0.00 | 0.18 | 0.00 | 90 | 1012.3 |
| 20260906163606 | 76 | 269 | 0.0 | 0.0 | 0.00 | 0.18 | 0.00 | 89 | 1012.4 |
| 20260906163003 | 76 | 269 | 0.0 | 0.0 | 0.00 | 0.18 | 0.00 | 88 | 1012.4 |
| 20260906162513 | 76 | 269 | 0.0 | 0.0 | 0.00 | 0.18 | 0.00 | 88 | 1012.2 |
| 20260906162103 | 76 | 269 | 0.0 | 0.0 | 0.00 | 0.18 | 0.00 | 86 | 1012.3 |
| 20260906161504 | 77 | 269 | 0.0 | 0.9 | 0.00 | 0.18 | 0.00 | 86 | 1012.3 |
| 20260906161009 | 77 | 269 | 0.0 | 0.9 | 0.00 | 0.18 | 0.00 | 86 | 1012.3 |
| 20260906160604 | 77 | 268 | 0.0 | 0.9 | 0.00 | 0.18 | 0.00 | 86 | 1012.4 |
| 20260906160002 | 77 | 268 | 0.0 | 0.0 | 0.00 | 0.18 | 0.00 | 86 | 1012.3 |
| 20260906155515 | 78 | 268 | 0.0 | 0.0 | 0.00 | 0.18 | 0.00 | 86 | 1012.2 |
| 20260906155003 | 78 | 268 | 0.0 | 0.0 | 0.00 | 0.18 | 0.00 | 85 | 1012.3 |
| 20260906154603 | 78 | 268 | 0.0 | 0.9 | 0.00 | 0.18 | 0.00 | 85 | 1012.2 |
| 20260906154004 | 78 | 268 | 0.0 | 0.9 | 0.00 | 0.18 | 0.00 | 84 | 1012.3 |
| 20260906153509 | 78 | 267 | 0.0 | 0.9 | 0.00 | 0.18 | 0.00 | 83 | 1012.3 |
| 20260906153104 | 78 | 316 | 0.0 | 0.0 | 0.00 | 0.18 | 0.00 | 85 | 1012.2 |
| 20260906152502 | 78 | 316 | 0.0 | 0.0 | 0.00 | 0.18 | 0.00 | 87 | 1012.2 |
| 20260906152103 | 78 | 315 | 0.0 | 0.0 | 0.00 | 0.18 | 0.00 | 86 | 1012.2 |
| 20260906151515 | 78 | 314 | 0.0 | 0.0 | 0.00 | 0.18 | 0.00 | 85 | 1012.3 |
| 20260906151013 | 78 | 314 | 0.0 | 0.0 | 0.00 | 0.18 | 0.00 | 85 | 1012.2 |
| 20260906150606 | 78 | 1 | 0.0 | 0.0 | 0.00 | 0.18 | 0.00 | 84 | 1012.2 |
| 20260906150009 | 78 | 309 | 0.0 | 0.0 | 0.00 | 0.18 | 0.00 | 84 | 1012.2 |
| 20260906145518 | 78 | 307 | 0.0 | 0.9 | 0.00 | 0.18 | 0.00 | 86 | 1012.2 |
| 20260906145017 | 77 | 307 | 0.0 | 0.9 | 0.00 | 0.18 | 0.00 | 84 | 1012.2 |
| 20260906144519 | 77 | 299 | 0.0 | 0.0 | 0.00 | 0.18 | 0.00 | 85 | 1012.2 |
| 20260906144007 | 77 | 14 | 0.0 | 0.0 | 0.00 | 0.18 | 0.00 | 85 | 1012.3 |
| 20260906143503 | 77 | 339 | 0.0 | 0.0 | 0.00 | 0.18 | 0.00 | 86 | 1012.2 |
| 20260906143013 | 77 | 339 | 0.0 | 0.0 | 0.00 | 0.18 | 0.00 | 84 | 1012.3 |
| 20260906142604 | 77 | 335 | 0.0 | 0.9 | 0.00 | 0.18 | 0.00 | 85 | 1012.2 |
| 20260906142038 | 76 | 6 | 0.0 | 0.9 | 0.00 | 0.18 | 0.00 | 85 | 1012.1 |
| 20260906141537 | 76 | 329 | 0.0 | 0.9 | 0.00 | 0.18 | 0.00 | 86 | 1012.0 |
| 20260906141034 | 76 | 337 | 0.0 | 0.0 | 0.00 | 0.18 | 0.00 | 87 | 1012.0 |
| 20260906140534 | 0 | 0.0 | 0.0 | 0.00 | 0.18 | 0.00 | 1011.9 | ||
| 20260906131010 | 73 | 265 | 0.0 | 0.0 | 0.00 | 0.18 | 0.00 | 97 | 1011.6 |
| 20260906130602 | 73 | 265 | 0.0 | 0.0 | 0.00 | 0.18 | 0.00 | 97 | 1011.7 |
| 20260906130003 | 73 | 265 | 0.0 | 1.7 | 0.00 | 0.18 | 0.00 | 98 | 1011.5 |
| 20260906125511 | 73 | 265 | 0.0 | 1.7 | 0.00 | 0.18 | 0.00 | 98 | 1011.7 |
| 20260906125104 | 73 | 265 | 0.0 | 0.0 | 0.00 | 0.18 | 0.00 | 98 | 1011.6 |
| 20260906124503 | 72 | 265 | 0.0 | 0.0 | 0.00 | 0.18 | 0.00 | 98 | 1011.8 |
| 20260906124009 | 72 | 265 | 0.0 | 2.6 | 0.00 | 0.18 | 0.00 | 98 | 1011.9 |
| 20260906123602 | 72 | 265 | 0.0 | 2.6 | 0.00 | 0.18 | 0.00 | 98 | 1011.8 |
| 20260906123002 | 72 | 252 | 0.0 | 0.0 | 0.00 | 0.18 | 0.00 | 98 | 1011.7 |
| 20260906122509 | 72 | 252 | 0.0 | 1.7 | 0.00 | 0.18 | 0.00 | 98 | 1011.6 |
| 20260906122102 | 72 | 252 | 0.0 | 1.7 | 0.00 | 0.18 | 0.00 | 98 | 1011.5 |
| 20260906121503 | 71 | 191 | 0.0 | 0.0 | 0.00 | 0.18 | 0.00 | 98 | 1011.5 |
| 20260906121003 | 71 | 191 | 0.0 | 0.0 | 0.00 | 0.18 | 0.00 | 98 | 1011.4 |
| 20260906120511 | 71 | 191 | 0.0 | 0.0 | 0.00 | 0.18 | 0.00 | 98 | 1011.2 |
| 20260906120111 | 70 | 191 | 0.0 | 0.0 | 0.00 | 0.18 | 0.00 | 98 | 1011.2 |
| 20260906115503 | 70 | 191 | 0.0 | 0.0 | 0.00 | 0.18 | 0.00 | 98 | 1011.1 |
| 20260906115010 | 70 | 191 | 0.0 | 0.0 | 0.00 | 0.18 | 0.00 | 98 | 1011.2 |
| 20260906114607 | 70 | 191 | 0.0 | 0.0 | 0.00 | 0.18 | 0.00 | 98 | 1011.2 |
| 20260906114003 | 70 | 191 | 0.0 | 0.0 | 0.00 | 0.18 | 0.00 | 98 | 1011.1 |
| 20260906113508 | 70 | 191 | 0.0 | 0.0 | 0.00 | 0.18 | 0.00 | 98 | 1011.1 |
| 20260906113108 | 69 | 191 | 0.0 | 0.0 | 0.00 | 0.18 | 0.00 | 98 | 1011.2 |
| 20260906112503 | 69 | 191 | 0.0 | 0.0 | 0.00 | 0.18 | 0.00 | 98 | 1011.1 |
| 20260906112009 | 69 | 191 | 0.0 | 0.0 | 0.00 | 0.18 | 0.00 | 98 | 1011.1 |
| 20260906111603 | 69 | 191 | 0.0 | 0.0 | 0.00 | 0.18 | 0.00 | 98 | 1011.0 |
| 20260906111003 | 69 | 191 | 0.0 | 0.0 | 0.00 | 0.18 | 0.00 | 98 | 1011.1 |
| 20260906110509 | 69 | 191 | 0.0 | 0.0 | 0.00 | 0.18 | 0.00 | 98 | 1011.0 |
| 20260906105504 | 70 | 191 | 0.0 | 0.0 | 0.00 | 0.18 | 0.00 | 98 | 1010.9 |
| 20260906105009 | 70 | 184 | 0.0 | 0.0 | 0.00 | 0.18 | 0.00 | 98 | 1010.8 |
| 20260906104603 | 70 | 184 | 0.0 | 0.0 | 0.00 | 0.18 | 0.00 | 98 | 1010.8 |
| 20260906104003 | 70 | 183 | 0.0 | 0.0 | 0.00 | 0.18 | 0.00 | 98 | 1010.8 |
| 20260906103509 | 70 | 183 | 0.0 | 0.0 | 0.00 | 0.18 | 0.00 | 98 | 1010.7 |
| 20260906103104 | 70 | 183 | 0.0 | 0.0 | 0.00 | 0.18 | 0.00 | 98 | 1010.6 |
| 20260906102504 | 70 | 183 | 0.0 | 0.0 | 0.00 | 0.18 | 0.00 | 98 | 1010.6 |
| 20260906102009 | 70 | 183 | 0.0 | 0.0 | 0.00 | 0.18 | 0.00 | 98 | 1010.6 |
| 20260906101604 | 69 | 183 | 0.0 | 0.0 | 0.00 | 0.18 | 0.00 | 98 | 1010.6 |
| 20260906101003 | 69 | 183 | 0.0 | 0.0 | 0.00 | 0.18 | 0.00 | 98 | 1010.5 |
| 20260906100509 | 69 | 183 | 0.0 | 0.0 | 0.00 | 0.18 | 0.00 | 98 | 1010.4 |
| 20260906095502 | 68 | 183 | 0.0 | 0.0 | 0.00 | 0.18 | 0.00 | 98 | 1010.1 |
| 20260906095009 | 68 | 183 | 0.0 | 0.0 | 0.00 | 0.18 | 0.00 | 98 | 1010.1 |
| 20260906094604 | 68 | 183 | 0.0 | 0.0 | 0.00 | 0.18 | 0.00 | 98 | 1010.2 |
| 20260906094003 | 68 | 183 | 0.0 | 0.0 | 0.00 | 0.18 | 0.00 | 98 | 1010.3 |
| 20260906093509 | 67 | 183 | 0.0 | 0.0 | 0.00 | 0.18 | 0.00 | 97 | 1010.2 |
| 20260906093103 | 67 | 183 | 0.0 | 0.0 | 0.00 | 0.18 | 0.00 | 97 | 1010.1 |
| 20260906092502 | 67 | 183 | 0.0 | 0.0 | 0.00 | 0.18 | 0.00 | 97 | 1010.1 |
| 20260906092008 | 67 | 183 | 0.0 | 0.0 | 0.00 | 0.18 | 0.00 | 97 | 1010.1 |
| 20260906091603 | 67 | 183 | 0.0 | 0.0 | 0.00 | 0.18 | 0.00 | 97 | 1009.9 |
| 20260906091003 | 67 | 183 | 0.0 | 0.0 | 0.00 | 0.18 | 0.00 | 97 | 1009.7 |
| 20260906090508 | 67 | 183 | 0.0 | 0.0 | 0.00 | 0.18 | 0.00 | 97 | 1009.6 |
| 20260906090103 | 67 | 183 | 0.0 | 0.0 | 0.00 | 0.18 | 0.00 | 97 | 1009.6 |
| 20260906085505 | 67 | 183 | 0.0 | 0.0 | 0.00 | 0.18 | 0.00 | 97 | 1009.4 |
| 20260906085009 | 67 | 183 | 0.0 | 0.0 | 0.00 | 0.18 | 0.00 | 97 | 1009.5 |
| 20260906084603 | 67 | 183 | 0.0 | 0.0 | 0.00 | 0.18 | 0.00 | 97 | 1009.5 |
| 20260906084005 | 67 | 183 | 0.0 | 0.0 | 0.00 | 0.18 | 0.00 | 97 | 1009.6 |
| 20260906083509 | 68 | 183 | 0.0 | 0.0 | 0.00 | 0.18 | 0.00 | 97 | 1009.5 |
| 20260906083103 | 68 | 183 | 0.0 | 0.0 | 0.00 | 0.18 | 0.00 | 97 | 1009.4 |
| 20260906082503 | 68 | 183 | 0.0 | 0.0 | 0.00 | 0.18 | 0.00 | 97 | 1009.4 |
| 20260906082009 | 68 | 183 | 0.0 | 0.0 | 0.00 | 0.18 | 0.00 | 97 | 1009.4 |
| 20260906081603 | 68 | 183 | 0.0 | 0.0 | 0.00 | 0.18 | 0.00 | 97 | 1009.3 |
| 20260906081003 | 68 | 183 | 0.0 | 0.0 | 0.00 | 0.18 | 0.00 | 97 | 1009.2 |
| 20260906080509 | 68 | 183 | 0.0 | 0.0 | 0.00 | 0.18 | 0.00 | 97 | 1009.0 |
| 20260906080103 | 68 | 183 | 0.0 | 0.0 | 0.00 | 0.18 | 0.00 | 97 | 1009.1 |
| 20260906075502 | 68 | 183 | 0.0 | 0.0 | 0.00 | 0.18 | 0.00 | 97 | 1009.0 |
| 20260906075009 | 68 | 183 | 0.0 | 0.0 | 0.00 | 0.18 | 0.00 | 97 | 1009.1 |
| 20260906074509 | 68 | 183 | 0.0 | 0.0 | 0.00 | 0.18 | 0.00 | 97 | 1009.1 |
| 20260906074103 | 68 | 183 | 0.0 | 0.0 | 0.00 | 0.18 | 0.00 | 97 | 1009.2 |
| 20260906073503 | 68 | 183 | 0.0 | 0.0 | 0.00 | 0.18 | 0.00 | 97 | 1009.3 |
| 20260906073009 | 68 | 183 | 0.0 | 0.0 | 0.00 | 0.18 | 0.00 | 97 | 1009.3 |
| 20260906072602 | 68 | 183 | 0.0 | 0.0 | 0.00 | 0.18 | 0.00 | 97 | 1009.2 |
| 20260906072003 | 68 | 183 | 0.0 | 0.0 | 0.00 | 0.18 | 0.00 | 97 | 1009.3 |
| 20260906071508 | 68 | 183 | 0.0 | 0.0 | 0.00 | 0.18 | 0.00 | 97 | 1009.4 |
| 20260906071105 | 68 | 183 | 0.0 | 0.0 | 0.00 | 0.18 | 0.00 | 97 | 1009.3 |
| 20260906070502 | 68 | 183 | 0.0 | 0.0 | 0.00 | 0.18 | 0.00 | 97 | 1009.3 |
| 20260906070014 | 68 | 183 | 0.0 | 0.0 | 0.00 | 0.18 | 0.00 | 97 | 1009.3 |
| 20260906065503 | 68 | 183 | 0.0 | 0.0 | 0.00 | 0.18 | 0.00 | 97 | 1009.4 |
| 20260906065009 | 68 | 183 | 0.0 | 0.0 | 0.00 | 0.18 | 0.00 | 97 | 1009.5 |
| 20260906064502 | 68 | 183 | 0.0 | 0.0 | 0.00 | 0.18 | 0.00 | 97 | 1009.5 |
| 20260906064103 | 68 | 183 | 0.0 | 0.0 | 0.00 | 0.18 | 0.00 | 97 | 1009.5 |
| 20260906063503 | 69 | 183 | 0.0 | 0.0 | 0.00 | 0.18 | 0.00 | 97 | 1009.6 |
| 20260906063102 | 69 | 183 | 0.0 | 0.0 | 0.00 | 0.18 | 0.00 | 96 | 1009.7 |
| 20260906062502 | 69 | 183 | 0.0 | 0.0 | 0.00 | 0.18 | 0.00 | 96 | 1009.6 |
| 20260906062009 | 69 | 183 | 0.0 | 0.0 | 0.00 | 0.18 | 0.00 | 97 | 1009.5 |
| 20260906061626 | 69 | 183 | 0.0 | 0.0 | 0.00 | 0.18 | 0.00 | 97 | 1009.5 |
| 20260906061003 | 69 | 183 | 0.0 | 0.0 | 0.00 | 0.18 | 0.00 | 97 | 1009.7 |
| 20260906060509 | 69 | 183 | 0.0 | 0.0 | 0.00 | 0.18 | 0.00 | 97 | 1009.7 |
| 20260906060119 | 69 | 183 | 0.0 | 0.0 | 0.00 | 0.18 | 0.00 | 97 | 1009.8 |
| 20260906055503 | 69 | 183 | 0.0 | 0.0 | 0.00 | 0.18 | 0.00 | 97 | 1009.7 |
| 20260906055010 | 69 | 183 | 0.0 | 0.0 | 0.00 | 0.18 | 0.00 | 97 | 1009.7 |
| 20260906054604 | 69 | 183 | 0.0 | 0.0 | 0.00 | 0.18 | 0.00 | 97 | 1009.9 |
| 20260906054003 | 69 | 183 | 0.0 | 0.0 | 0.00 | 0.18 | 0.00 | 96 | 1009.8 |
| 20260906053511 | 69 | 183 | 0.0 | 0.0 | 0.00 | 0.18 | 0.00 | 96 | 1009.8 |
| 20260906053103 | 70 | 183 | 0.0 | 0.0 | 0.00 | 0.18 | 0.00 | 96 | 1009.9 |
| 20260906052503 | 70 | 183 | 0.0 | 0.0 | 0.00 | 0.18 | 0.00 | 97 | 1009.8 |
| 20260906052012 | 70 | 183 | 0.0 | 0.0 | 0.00 | 0.18 | 0.00 | 97 | 1009.7 |
| 20260906051609 | 70 | 183 | 0.0 | 0.0 | 0.00 | 0.18 | 0.00 | 97 | 1009.7 |
| 20260906051005 | 70 | 183 | 0.0 | 0.0 | 0.00 | 0.18 | 0.00 | 97 | 1009.8 |
| 20260906050514 | 70 | 183 | 0.0 | 0.0 | 0.00 | 0.18 | 0.00 | 97 | 1009.9 |
| 20260906045502 | 70 | 183 | 0.0 | 0.0 | 0.00 | 0.18 | 0.00 | 97 | 1010.1 |
| 20260906045009 | 70 | 183 | 0.0 | 0.0 | 0.00 | 0.18 | 0.00 | 97 | 1010.1 |
| 20260906044509 | 70 | 183 | 0.0 | 0.0 | 0.00 | 0.18 | 0.00 | 97 | 1010.1 |
| 20260906044106 | 70 | 183 | 0.0 | 0.0 | 0.00 | 0.18 | 0.00 | 97 | 1010.2 |
| 20260906043605 | 70 | 183 | 0.0 | 0.0 | 0.00 | 0.18 | 0.00 | 97 | 1010.3 |
| 20260906043011 | 70 | 183 | 0.0 | 0.0 | 0.00 | 0.18 | 0.00 | 97 | 1010.4 |
| 20260906042509 | 70 | 183 | 0.0 | 0.0 | 0.00 | 0.18 | 0.00 | 97 | 1010.5 |
| 20260906042102 | 70 | 183 | 0.0 | 0.0 | 0.00 | 0.18 | 0.00 | 97 | 1010.5 |
| 20260906041504 | 70 | 183 | 0.0 | 0.0 | 0.00 | 0.18 | 0.00 | 97 | 1010.6 |
| 20260906041003 | 70 | 183 | 0.0 | 0.0 | 0.00 | 0.18 | 0.00 | 97 | 1010.6 |
| 20260906040502 | 70 | 183 | 0.0 | 0.0 | 0.00 | 0.18 | 0.00 | 97 | 1010.6 |
| 20260906040009 | 70 | 183 | 0.0 | 0.0 | 0.00 | 0.18 | 0.00 | 97 | 1010.4 |
| 20260906035603 | 70 | 183 | 0.0 | 0.9 | 0.00 | 0.18 | 0.18 | 97 | 1010.5 |
| 20260906035003 | 70 | 183 | 0.0 | 0.9 | 0.00 | 0.18 | 0.18 | 96 | 1010.5 |
| 20260906034508 | 70 | 183 | 0.0 | 0.0 | 0.00 | 0.18 | 0.18 | 96 | 1010.5 |
| 20260906033502 | 70 | 183 | 0.0 | 0.0 | 0.00 | 0.18 | 0.18 | 96 | 1010.3 |
| 20260906033009 | 70 | 183 | 0.0 | 0.0 | 0.00 | 0.18 | 0.18 | 96 | 1010.3 |
| 20260906032604 | 70 | 183 | 0.0 | 0.0 | 0.00 | 0.18 | 0.18 | 96 | 1010.3 |
| 20260906032004 | 70 | 183 | 0.0 | 0.0 | 0.00 | 0.18 | 0.18 | 96 | 1010.2 |
| 20260906031510 | 70 | 183 | 0.0 | 0.0 | 0.00 | 0.18 | 0.18 | 96 | 1010.0 |
| 20260906031106 | 70 | 183 | 0.0 | 0.0 | 0.00 | 0.18 | 0.18 | 96 | 1010.0 |
| 20260906030503 | 70 | 183 | 0.0 | 0.0 | 0.00 | 0.18 | 0.18 | 96 | 1010.1 |
| 20260906030009 | 70 | 183 | 0.0 | 0.0 | 0.00 | 0.18 | 0.18 | 96 | 1010.1 |
| 20260906025604 | 70 | 183 | 0.0 | 0.0 | 0.00 | 0.18 | 0.18 | 96 | 1010.1 |
| 20260906025003 | 71 | 183 | 0.0 | 0.0 | 0.00 | 0.18 | 0.18 | 96 | 1010.0 |
| 20260906024509 | 71 | 183 | 0.0 | 0.0 | 0.00 | 0.18 | 0.18 | 96 | 1010.0 |
| 20260906024104 | 71 | 183 | 0.0 | 0.0 | 0.00 | 0.18 | 0.18 | 96 | 1010.0 |
| 20260906023503 | 71 | 183 | 0.0 | 0.0 | 0.00 | 0.18 | 0.18 | 96 | 1009.9 |
| 20260906023009 | 71 | 183 | 0.0 | 0.0 | 0.00 | 0.18 | 0.18 | 96 | 1009.8 |
| 20260906022602 | 71 | 183 | 0.0 | 0.0 | 0.00 | 0.18 | 0.18 | 96 | 1009.9 |
| 20260906022003 | 71 | 183 | 0.0 | 0.0 | 0.00 | 0.18 | 0.18 | 96 | 1009.9 |
| 20260906021519 | 71 | 183 | 0.0 | 0.0 | 0.00 | 0.18 | 0.18 | 96 | 1010.0 |
| 20260906021103 | 71 | 183 | 0.0 | 0.0 | 0.00 | 0.18 | 0.18 | 96 | 1009.9 |
| 20260906020503 | 71 | 183 | 0.0 | 0.0 | 0.00 | 0.18 | 0.18 | 96 | 1009.8 |
| 20260906020013 | 71 | 183 | 0.0 | 0.0 | 0.00 | 0.18 | 0.18 | 95 | 1009.8 |
| 20260906015602 | 71 | 183 | 0.0 | 0.0 | 0.00 | 0.18 | 0.18 | 95 | 1009.8 |
| 20260906015003 | 71 | 183 | 0.0 | 0.0 | 0.00 | 0.18 | 0.18 | 96 | 1009.8 |
| 20260906014514 | 72 | 183 | 0.0 | 0.0 | 0.00 | 0.18 | 0.18 | 96 | 1009.8 |
| 20260906014102 | 72 | 183 | 0.0 | 0.0 | 0.00 | 0.18 | 0.18 | 96 | 1009.7 |
| 20260906013506 | 72 | 183 | 0.0 | 0.0 | 0.00 | 0.18 | 0.18 | 96 | 1009.7 |
| 20260906013020 | 72 | 183 | 0.0 | 0.0 | 0.00 | 0.18 | 0.18 | 95 | 1009.8 |
| 20260906012602 | 72 | 183 | 0.0 | 0.0 | 0.00 | 0.18 | 0.18 | 95 | 1009.7 |
| 20260906012003 | 72 | 183 | 0.0 | 0.0 | 0.00 | 0.18 | 0.18 | 95 | 1009.7 |
| 20260906011509 | 72 | 183 | 0.0 | 0.0 | 0.00 | 0.18 | 0.18 | 95 | 1009.7 |
| 20260906011102 | 72 | 183 | 0.0 | 0.0 | 0.00 | 0.18 | 0.18 | 95 | 1009.6 |
| 20260906010505 | 72 | 183 | 0.0 | 0.0 | 0.00 | 0.18 | 0.18 | 95 | 1009.5 |
| 20260906010011 | 72 | 183 | 0.0 | 0.0 | 0.00 | 0.18 | 0.18 | 95 | 1009.6 |
| 20260906005602 | 72 | 183 | 0.0 | 0.0 | 0.00 | 0.18 | 0.18 | 95 | 1009.5 |
| 20260906005003 | 72 | 183 | 0.0 | 0.0 | 0.00 | 0.18 | 0.18 | 95 | 1009.3 |
| 20260906004509 | 73 | 183 | 0.0 | 0.0 | 0.00 | 0.18 | 0.18 | 95 | 1009.3 |
| 20260906004105 | 73 | 183 | 0.0 | 0.0 | 0.00 | 0.18 | 0.18 | 95 | 1009.4 |
| 20260906003503 | 73 | 183 | 0.0 | 0.0 | 0.00 | 0.18 | 0.18 | 95 | 1009.3 |
| 20260906003018 | 73 | 183 | 0.0 | 0.0 | 0.00 | 0.18 | 0.18 | 95 | 1009.4 |
| 20260906002603 | 73 | 183 | 0.0 | 0.0 | 0.00 | 0.18 | 0.18 | 95 | 1009.3 |
| 20260906002003 | 73 | 183 | 0.0 | 0.0 | 0.00 | 0.18 | 0.18 | 94 | 1009.3 |
| 20260906001512 | 73 | 183 | 0.0 | 0.0 | 0.00 | 0.18 | 0.18 | 94 | 1009.2 |
| 20260906001103 | 73 | 183 | 0.0 | 0.0 | 0.00 | 0.18 | 0.18 | 94 | 1009.2 |
| 20260906000503 | 74 | 183 | 0.0 | 0.0 | 0.00 | 0.18 | 0.18 | 94 | 1009.2 |
| 20260906000008 | 74 | 183 | 0.0 | 0.0 | 0.00 | 0.18 | 0.18 | 94 | 1009.1 |
| 20260905235606 | 74 | 183 | 0.0 | 0.0 | 0.00 | 0.18 | 0.18 | 94 | 1009.0 |
| 20260905235003 | 74 | 183 | 0.0 | 0.0 | 0.00 | 0.18 | 0.18 | 94 | 1008.9 |
| 20260905234509 | 74 | 183 | 0.0 | 0.0 | 0.00 | 0.18 | 0.18 | 94 | 1008.7 |
| 20260905234103 | 74 | 183 | 0.0 | 0.0 | 0.00 | 0.18 | 0.18 | 94 | 1008.8 |
| 20260905233502 | 75 | 183 | 0.0 | 0.0 | 0.00 | 0.18 | 0.18 | 94 | 1008.6 |
| 20260905233014 | 75 | 183 | 0.0 | 0.0 | 0.00 | 0.18 | 0.18 | 95 | 1008.5 |
| 20260905232604 | 75 | 183 | 0.0 | 0.0 | 0.00 | 0.18 | 0.18 | 95 | 1008.5 |
| 20260905232003 | 75 | 183 | 0.0 | 0.0 | 0.00 | 0.18 | 0.18 | 94 | 1008.5 |
| 20260905231510 | 75 | 183 | 0.0 | 0.0 | 0.00 | 0.18 | 0.18 | 94 | 1008.5 |
| 20260905231103 | 75 | 183 | 0.0 | 0.0 | 0.00 | 0.18 | 0.18 | 94 | 1008.5 |
| 20260905230503 | 75 | 183 | 0.0 | 0.0 | 0.00 | 0.18 | 0.18 | 95 | 1008.4 |
| 20260905230009 | 75 | 183 | 0.0 | 0.0 | 0.00 | 0.18 | 0.18 | 94 | 1008.4 |
| 20260905225604 | 75 | 180 | 0.0 | 0.0 | 0.00 | 0.18 | 0.18 | 94 | 1008.4 |
| 20260905225003 | 75 | 180 | 0.0 | 0.0 | 0.00 | 0.18 | 0.18 | 94 | 1008.5 |
| 20260905224515 | 75 | 180 | 0.0 | 0.0 | 0.00 | 0.18 | 0.18 | 94 | 1008.4 |
| 20260905224104 | 75 | 180 | 0.0 | 0.0 | 0.00 | 0.18 | 0.18 | 93 | 1008.5 |
| 20260905223505 | 75 | 180 | 0.0 | 0.0 | 0.00 | 0.18 | 0.18 | 94 | 1008.5 |
| 20260905223009 | 75 | 180 | 0.0 | 0.0 | 0.00 | 0.18 | 0.18 | 94 | 1008.7 |
| 20260905222602 | 75 | 180 | 0.0 | 0.0 | 0.00 | 0.18 | 0.18 | 94 | 1008.7 |
| 20260905222002 | 75 | 180 | 0.0 | 0.0 | 0.00 | 0.18 | 0.18 | 94 | 1008.8 |
| 20260905221511 | 75 | 180 | 0.0 | 0.0 | 0.00 | 0.18 | 0.18 | 94 | 1008.8 |
| 20260905221102 | 75 | 180 | 0.0 | 0.0 | 0.00 | 0.18 | 0.18 | 94 | 1008.8 |
| 20260905220502 | 75 | 180 | 0.0 | 0.0 | 0.00 | 0.18 | 0.18 | 94 | 1008.8 |
| 20260905220009 | 75 | 180 | 0.0 | 0.0 | 0.00 | 0.18 | 0.18 | 94 | 1008.8 |
| 20260905215604 | 74 | 180 | 0.0 | 0.0 | 0.00 | 0.18 | 0.18 | 94 | 1008.9 |
| 20260905215006 | 74 | 180 | 0.0 | 0.0 | 0.00 | 0.18 | 0.18 | 94 | 1009.0 |
| 20260905214510 | 74 | 180 | 0.0 | 0.0 | 0.00 | 0.18 | 0.18 | 94 | 1009.0 |
| 20260905214103 | 74 | 180 | 0.0 | 0.0 | 0.00 | 0.18 | 0.18 | 94 | 1009.0 |
| 20260905213503 | 74 | 180 | 0.0 | 0.0 | 0.00 | 0.18 | 0.18 | 95 | 1009.0 |
| 20260905213008 | 74 | 180 | 0.0 | 0.0 | 0.00 | 0.18 | 0.18 | 94 | 1009.0 |
| 20260905212603 | 74 | 180 | 0.0 | 0.0 | 0.00 | 0.18 | 0.18 | 94 | 1009.1 |
| 20260905212002 | 74 | 180 | 0.0 | 0.0 | 0.00 | 0.18 | 0.18 | 94 | 1009.2 |
| 20260905211508 | 74 | 180 | 0.0 | 0.0 | 0.00 | 0.18 | 0.18 | 94 | 1009.3 |
| 20260905211105 | 74 | 180 | 0.0 | 0.0 | 0.00 | 0.18 | 0.18 | 94 | 1009.3 |
| 20260905210504 | 74 | 180 | 0.0 | 0.0 | 0.00 | 0.18 | 0.18 | 95 | 1009.4 |
| 20260905210009 | 73 | 180 | 0.0 | 0.0 | 0.00 | 0.18 | 0.18 | 94 | 1009.6 |